Weather History for Worland, WY

Change the Weather History Date:

Monday, November 26, 2012

  Actual Average Record
Temperature  
Mean Temperature 30 °F 24 °F  
Max Temperature 36 °F 37 °F 66 °F (1998)
Min Temperature 21 °F 11 °F -15 °F (1985)
Degree Days  
Heating Degree Days 35 41  
Month to date heating degree days 573 863  
Since 1 July heating degree days 1279 1725  
Cooling Degree Days 0 0  
Month to date cooling degree days 0 0  
Year to date cooling degree days 901 535  
Moisture  
Dew Point 22 °F    
Average Humidity 72    
Maximum Humidity 88    
Minimum Humidity 56    
Precipitation  
Precipitation 0.00 in 0.01 in 0.40 in (2005)
Month to date precipitation 0.60 0.31  
Year to date precipitation 2.65 7.30  
Sea Level Pressure  
Sea Level Pressure 30.21 in    
Wind  
Wind Speed 6 mph (SSE)    
Max Wind Speed 10 mph    
Max Gust Speed -    
Visibility 10 miles    
Events      
T = Trace of Precipitation, MM = Missing Value Source: NWS Daily Summary

Daily Weather History Graph

Daily Weather History Graph

Search for Another Location

Airport:

Trip Planner

Search our weather history database for the weather conditions in past years. The results will help you decide how hot, cold, wet, or windy it might be!

Date:

Astronomy

Nov. 26, 2012 Rise Set
Actual Time 7:21 AM MST 4:37 PM MST
Civil Twilight 6:49 AM MST 5:09 PM MST
Nautical Twilight 6:13 AM MST 5:44 PM MST
Astronomical Twilight 5:38 AM MST 6:19 PM MST
Moon 3:32 PM MST (11/26) 5:32 AM MST (11/26)
Length of Visible Light 10h 19m
Length of Day
9h 15m
Waxing Gibbous, 97% of the Moon is Illuminated
Nov 26
Waxing Gibbous
Nov 28
Full
Dec 6
Last Quarter
Dec 13
New
Dec 19
First Quarter

Hourly Weather History & Observations

Time (MST) Temp. Windchill Dew Point Humidity Pressure Visibility Wind Dir Wind Speed Gust Speed Precip Events Conditions
12:53 AM - - - N/A% 30.18 in 10.0 mi Calm Calm - N/A   Overcast
1:53 AM - - - N/A% 30.20 in 10.0 mi WNW 10.4 mph - N/A   Overcast
2:53 AM - - - N/A% 30.23 in 10.0 mi WNW 8.1 mph - N/A   Overcast
3:53 AM - - - N/A% 30.25 in 10.0 mi WNW 5.8 mph - N/A   Overcast
4:53 AM - - - N/A% 30.26 in 10.0 mi NW 5.8 mph - N/A   Overcast
5:53 AM - - - N/A% 30.28 in 10.0 mi SSW 4.6 mph - N/A   Scattered Clouds
6:53 AM - - - N/A% 30.30 in 10.0 mi South 4.6 mph - N/A   Partly Cloudy
7:53 AM - - - N/A% 30.30 in 10.0 mi SSE 5.8 mph - N/A   Clear
8:53 AM - - - N/A% 30.30 in 10.0 mi SSE 6.9 mph - N/A   Clear
9:53 AM - - - N/A% 30.30 in 10.0 mi SSE 8.1 mph - N/A   Clear
10:53 AM - - - N/A% 30.28 in 10.0 mi SE 8.1 mph - N/A   Clear
11:53 AM - - - N/A% 30.25 in 10.0 mi SE 9.2 mph - N/A   Clear
12:53 PM - - - N/A% 30.21 in 10.0 mi ESE 6.9 mph - N/A   Clear
1:53 PM - - - N/A% 30.18 in 10.0 mi ESE 10.4 mph - N/A   Clear
2:53 PM 36.0 °F 29.6 °F 21.9 °F 57% 30.16 in 10.0 mi ESE 8.1 mph - N/A   Clear
3:53 PM 35.1 °F 30.1 °F 24.1 °F 64% 30.16 in 10.0 mi East 5.8 mph - N/A   Clear
4:53 PM 30.0 °F 25.2 °F 24.1 °F 79% 30.15 in 10.0 mi East 4.6 mph - N/A   Clear
5:53 PM 28.0 °F 20.8 °F 23.0 °F 81% 30.16 in 10.0 mi South 6.9 mph - N/A   Clear
6:53 PM 27.0 °F 18.0 °F 23.0 °F 85% 30.16 in 10.0 mi South 9.2 mph - N/A   Clear
7:53 PM 26.1 °F 20.5 °F 21.9 °F 84% 30.16 in 10.0 mi SSW 4.6 mph - N/A   Clear
8:53 PM 25.0 °F 20.7 °F 21.0 °F 85% 30.16 in 10.0 mi SSE 3.5 mph - N/A   Clear
9:53 PM 24.1 °F 17.0 °F 19.9 °F 84% 30.15 in 10.0 mi South 5.8 mph - N/A   Clear
10:53 PM 21.0 °F - 18.0 °F 88% 30.14 in 10.0 mi Calm Calm - N/A   Clear